This is the latest recevied weather packets stored in our database for station/object KG7MRB. If no packets are shown the sender has not sent any weather packets the latest 10 day(s).
| Time | Temp. | Humidity | Pressure | Rain* | Wind** | Luminosity | Snow |
|---|---|---|---|---|---|---|---|
| 1778183127 | 15.56° C | 75% | 1037.9 hPa | 0 mm | - | 394 W/m² | - |
| 1778182824 | 15° C | 74% | 1037.9 hPa | 0 mm | - | 385 W/m² | - |
| 1778182521 | 15.56° C | 75% | 1038.1 hPa | 0 mm | - | 399 W/m² | - |
| 1778182218 | 15° C | 77% | 1037.7 hPa | 0 mm | - | 377 W/m² | - |
| 1778181914 | 14.44° C | 78% | 1037.9 hPa | 0 mm | - | 352 W/m² | - |
| 1778181611 | 14.44° C | 78% | 1038 hPa | 0 mm | - | 265 W/m² | - |
| 1778181306 | 14.44° C | 80% | 1038.1 hPa | 0 mm | - | 212 W/m² | - |
| 1778181003 | 14.44° C | 80% | 1037.9 hPa | 0 mm | - | 197 W/m² | - |
| 1778180701 | 14.44° C | 80% | 1038.1 hPa | 0 mm | - | 192 W/m² | - |
| 1778180400 | 14.44° C | 79% | 1037.9 hPa | 0 mm | - | 199 W/m² | - |
| 1778180096 | 14.44° C | 79% | 1038.1 hPa | 0 mm | - | 259 W/m² | - |
| 1778179793 | 14.44° C | 76% | 1038 hPa | 0 mm | - | 292 W/m² | - |
| 1778179491 | 15° C | 74% | 1038.1 hPa | 0 mm | - | 339 W/m² | - |
| 1778179189 | 15.56° C | 74% | 1038.2 hPa | 0 mm | - | 331 W/m² | - |
| 1778178885 | 15° C | 74% | 1038 hPa | 0 mm | - | 282 W/m² | - |
| 1778178582 | 15° C | 74% | 1038.2 hPa | 0 mm | - | 246 W/m² | - |
| 1778178278 | 14.44° C | 74% | 1038.2 hPa | 0 mm | - | 233 W/m² | - |
| 1778177974 | 14.44° C | 75% | 1038.4 hPa | 0 mm | - | 231 W/m² | - |
| 1778177671 | 14.44° C | 76% | 1038.3 hPa | 0 mm | - | 233 W/m² | - |
| 1778177368 | 14.44° C | 75% | 1038.4 hPa | 0 mm | - | 232 W/m² | - |
| 1778177064 | 13.89° C | 77% | 1038.3 hPa | 0 mm | - | 229 W/m² | - |
| 1778176760 | 13.89° C | 79% | 1038.3 hPa | 0 mm | - | 239 W/m² | - |
| 1778176457 | 13.89° C | 81% | 1038.6 hPa | 0 mm | - | 210 W/m² | - |
| 1778176155 | 13.33° C | 81% | 1038.5 hPa | 0 mm | - | 175 W/m² | - |
| 1778175852 | 13.89° C | 80% | 1038.6 hPa | 0 mm | - | 148 W/m² | - |
* Rain latest hour (hover to see other rain measurements)
** Current wind speed in m/s (hover to see current wind gust speed)